Flag for United Kingdom Weather past 2 weeks in Weymouth, England, United Kingdom

Now
69 °F

Mild.


Feels Like: 69 °F
Forecast: 59 / 71 °F
Wind: 14 mph from West

Location: Isle Of Portland

Current Time: Jul 29, 2014 at 6:20:44 PM

Latest Report: Jul 29, 2014 at 5:00 PM


Visibility: 16 mi

Pressure: 30.01 "Hg

Humidity: 73%

Dew point: 60 °F

Location of WeymouthLocation

Historic Weather in Weymouth — Graph

°F

Weymouth temperature yesterday

Maximum temperature yesterday: 70 °F (at 3:00 PM)
Minimum temperature yesterday: 60 °F (at 2:00 AM)
Average temperature yesterday: 65 °F

Past Weeks' High & Low Weather Summary

 TemperatureHumidityPressure
High78 °F (Jul 25, 1:00 PM)98% (Jul 15, 4:00 AM)30.22 "Hg (Jul 15, 4:00 AM)
Low59 °F (Jul 16, 6:00 AM)53% (Jul 28, 1:00 PM)29.74 "Hg (Jul 19, 7:00 AM)
Average66 °F80%30.03 "Hg
* Reported Jul 14 5:00 PM — Jul 29 5:00 PM, Weymouth, Weather by CustomWeather, © 2014

Note: Actual official high and low records may vary slightly from our data, if they occured in-between our weather recording intervals... More about our weather records

Advertising

Weymouth weather history for previous 24 hours

 ConditionsComfort  
Time TempWeatherWind HumidityBarometerVisibility
5:00 PM
Jul 29
69 °FMild.14 mph73%30.01 "Hg16 mi
4:00 PM69 °FMild.15 mph70%30.02 "Hg17 mi
3:00 PM70 °FMild.12 mph73%30.02 "Hg19 mi
2:00 PM71 °FMild.12 mph69%30.03 "Hg28 mi
1:00 PM70 °FMild.12 mph73%30.04 "Hg19 mi
12:00 PM69 °FMild.12 mph75%30.05 "Hg22 mi
11:00 AM69 °FMild.8 mph74%30.06 "Hg4 mi
10:00 AM71 °FMild.10 mph59%30.05 "Hg25 mi
9:00 AM68 °FMild.13 mph69%30.05 "Hg12 mi
8:00 AM65 °FMild.13 mph74%30.05 "Hg17 mi
7:00 AM62 °FMild.13 mph81%30.05 "Hg12 mi
6:00 AM60 °FCool.15 mph82%30.04 "Hg11 mi
5:00 AM62 °FMild.14 mph75%30.04 "Hg19 mi
4:00 AM62 °FCool.9 mph85%30.05 "Hg19 mi
3:00 AM62 °FMild.8 mph84%30.05 "Hg19 mi
2:00 AM64 °FMild.10 mph80%30.05 "Hg19 mi
1:00 AM63 °FMild.10 mph79%30.05 "Hg25 mi
12:00 AM64 °FMild.8 mph80%30.04 "Hg19 mi
11:00 PM
Jul 28
66 °FMild.12 mph70%30.05 "Hg19 mi
9:00 PM65 °FMild.7 mph82%30.02 "Hg19 mi
8:00 PM66 °FMild.13 mph75%30.02 "Hg31 mi
7:00 PM64 °FRain showers. Cloudy.13 mph83%30.01 "Hg17 mi
6:00 PM67 °FMild.13 mph73%30.00 "Hg25 mi
Weather by CustomWeather, © 2014

See weather overviewHow to use our weather pages